This is the latest recevied weather packets stored in our database for station/object p43g-13. If no packets are shown the sender has not sent any weather packets the latest 10 day(s).
| Time | Temp. | Humidity | Pressure | Rain* | Wind** | Luminosity | Snow |
|---|---|---|---|---|---|---|---|
| 1788263470 | 85° F | 82% | 759 mmHg | 0 in | - | 130 W/m² | - |
| 1788263170 | 85° F | 82% | 758.8 mmHg | 0 in | - | 126 W/m² | - |
| 1788262871 | 85° F | 82% | 758.8 mmHg | 0 in | - | 95 W/m² | - |
| 1788262571 | 84° F | 82% | 758.8 mmHg | 0 in | - | 92 W/m² | - |
| 1788262271 | 84° F | 83% | 758.9 mmHg | 0 in | - | 68 W/m² | - |
| 1788261971 | 84° F | 83% | 759 mmHg | 0 in | - | 49 W/m² | - |
| 1788261671 | 84° F | 84% | 759 mmHg | 0 in | - | 49 W/m² | - |
| 1788261371 | 84° F | 84% | 758.8 mmHg | 0 in | - | 43 W/m² | - |
| 1788261070 | 84° F | 84% | 759.1 mmHg | 0 in | - | 50 W/m² | - |
| 1788260771 | 84° F | 84% | 758.8 mmHg | 0 in | - | 47 W/m² | - |
| 1788260471 | 83° F | 84% | 758.8 mmHg | 0 in | - | 39 W/m² | - |
| 1788260171 | 83° F | 84% | 758.8 mmHg | 0 in | - | 34 W/m² | - |
| 1788259871 | 83° F | 84% | 758.8 mmHg | 0 in | - | 23 W/m² | - |
| 1788259572 | 83° F | 84% | 758.7 mmHg | 0 in | - | 18 W/m² | - |
| 1788259271 | 83° F | 84% | 758.7 mmHg | 0 in | - | 13 W/m² | - |
| 1788258971 | 83° F | 83% | 758.8 mmHg | 0 in | - | 7 W/m² | - |
| 1788258670 | 83° F | 84% | 758.6 mmHg | 0 in | - | 4 W/m² | - |
| 1788258371 | 83° F | 84% | 758.6 mmHg | 0 in | - | 3 W/m² | - |
| 1788258071 | 83° F | 85% | 758.5 mmHg | 0 in | - | 0 W/m² | - |
| 1788257771 | 83° F | 85% | 758.5 mmHg | 0 in | - | 0 W/m² | - |
| 1788257471 | 83° F | 84% | 758.8 mmHg | 0 in | - | 0 W/m² | - |
| 1788257171 | 83° F | 84% | 758.8 mmHg | 0 in | - | 0 W/m² | - |
| 1788256871 | 83° F | 84% | 758.8 mmHg | 0 in | - | 0 W/m² | - |
| 1788256571 | 83° F | 84% | 758.8 mmHg | 0 in | - | 0 W/m² | - |
| 1788256271 | 83° F | 84% | 758.8 mmHg | 0 in | - | 0 W/m² | - |
* Rain latest hour (hover to see other rain measurements)
** Current wind speed in m/s (hover to see current wind gust speed)